This is the latest recevied weather packets stored in our database for station/object N4UUJ-1. If no packets are shown the sender has not sent any weather packets the latest 10 day(s).
| Time | Temp. | Humidity | Pressure | Rain* | Wind** | Luminosity | Snow |
|---|---|---|---|---|---|---|---|
| 1788090694 | 18.89° C | 75% | 1024.2 hPa | 0 mm | - | - | - |
| 1788088893 | 18.33° C | 75% | 1024.1 hPa | 0 mm | - | - | - |
| 1788087092 | 18.33° C | 75% | 1023.8 hPa | 0 mm | - | - | - |
| 1788085291 | 18.33° C | 75% | 1023.8 hPa | 0 mm | - | - | - |
| 1788083490 | 18.33° C | 75% | 1023.6 hPa | 0 mm | - | - | - |
| 1788081689 | 18.33° C | 75% | 1023.6 hPa | 0 mm | - | - | - |
| 1788079888 | 18.89° C | 75% | 1023.6 hPa | 0 mm | - | - | - |
| 1788078087 | 19.44° C | 75% | 1023.3 hPa | 0 mm | - | - | - |
| 1788076286 | 19.44° C | 75% | 1023.5 hPa | 0 mm | - | - | - |
| 1788074488 | 19.44° C | 75% | 1023.5 hPa | 0 mm | - | - | - |
| 1788072684 | 19.44° C | 75% | 1023.6 hPa | 0 mm | - | - | - |
| 1788070883 | 19.44° C | 75% | 1023.7 hPa | 0 mm | - | - | - |
| 1788069082 | 19.44° C | 75% | 1023.7 hPa | 0 mm | - | - | - |
| 1788067281 | 19.44° C | 75% | 1023.8 hPa | 0 mm | - | - | - |
| 1788065480 | 20° C | 75% | 1023.8 hPa | 0 mm | - | - | - |
| 1788063679 | 20° C | 75% | 1024 hPa | 0 mm | - | - | - |
| 1788061878 | 20.56° C | 75% | 1023.9 hPa | 0 mm | - | - | - |
| 1788060077 | 20.56° C | 75% | 1023.8 hPa | 0 mm | - | - | - |
| 1788058276 | 21.11° C | 75% | 1023.6 hPa | 0 mm | - | - | - |
| 1788056475 | 21.11° C | 75% | 1023.4 hPa | 0 mm | - | - | - |
| 1788054674 | 21.67° C | 75% | 1023.1 hPa | 0 mm | - | - | - |
| 1788052873 | 21.67° C | 75% | 1022.6 hPa | 0 mm | - | - | - |
| 1788051072 | 22.22° C | 75% | 1022.4 hPa | 0 mm | - | - | - |
| 1788049271 | 23.33° C | 75% | 1022.3 hPa | 0 mm | - | - | - |
| 1788047470 | 26.67° C | 75% | 1022.1 hPa | 0 mm | - | - | - |
* Rain latest hour (hover to see other rain measurements)
** Current wind speed in m/s (hover to see current wind gust speed)